Weather Roundup
Issued by NWS

Home | Current Version | Previous Version | Graphics & Text | Print | Product List | Glossary Off
Versions: 1 2 3 4 5 6 7 8 9 10 11 12 13 14 15 16 17 18 19 20 21 22 23 24 25 26 27 28 29 30 31 32 33 34 35 36 37 38 39 40 41 42 43 44 45 46 47 48 49 50

000
NZUS93 KARX 240159
HRRWXR

CURRENT HOURLY OBSERVATIONS ACROSS
MUCH OF THE UPPER MISSISSIPPI VALLEY
NATIONAL WEATHER SERVICE LA CROSSE WI
800 PM CST TUE DEC 23 2014


...SOUTHEAST MINNESOTA...


CITY           SKY/WX    TMP DP  RH WIND       PRES   REMARKS
ROCHESTER      CLOUDY    33  31  92 N13       29.76R WCI  24
ROCHESTER/MAYO CLOUDY    33  32  95 NW7       29.76R WCI  27
WINONA         CLOUDY    36  34  93 NW7       29.75S WCI  30
AUSTIN         CLOUDY    34  32  93 N10G17    29.76R WCI  26
ALBERT LEA     MIX PCPN  34  34 100 N8        29.77S WCI  27
DODGE CENTER   CLOUDY    34  34 100 N13       29.76R WCI  25
PRESTON        CLOUDY    32  31  96 N9        29.74R WCI  24
OWATONNA       CLOUDY    34  32  93 N9        29.79S WCI  26
FARIBAULT      CLOUDY    36  32  87 N8        29.80S WCI  29
$$

...ELSEWHERE IN MINNESOTA...


CITY           SKY/WX    TMP DP  RH WIND       PRES   REMARKS
MINNEAPOLIS    CLOUDY    35  31  85 N16G22    29.83R WCI  25
INTNL FALLS    CLOUDY    33  32  96 N5        29.89F WCI  29
DULUTH         CLOUDY    34  31  88 N7        29.80S WCI  28
RED WING       CLOUDY    36  32  87 N6        29.78R WCI  31
REDWOOD FALLS  CLOUDY    36  33  89 N9        29.89R WCI  29
MANKATO        CLOUDY    36  30  80 N17       29.82S WCI  25
WORTHINGTON    CLOUDY    34 -17  11 N21G26    29.88R WCI  22
FAIRMONT       CLOUDY    34  30  86 N17       29.82S WCI  23
$$

...SOUTHWEST WISCONSIN...


CITY           SKY/WX    TMP DP  RH WIND       PRES   REMARKS
LA CROSSE      CLOUDY    36  33  89 CALM      29.74R
PRAIRIE DU CHI CLOUDY    35  33  91 CALM      29.73S
BOSCOBEL       CLOUDY    36  33  89 NW3       29.73S
LONE ROCK      NOT AVBL
PLATTEVILLE    CLOUDY    35  35  97 CALM      29.72S
FORT MC COY    CLOUDY    34  34 100 CALM      29.73R
VIROQUA        CLOUDY    33  33 100 NW3       29.71R VSB 1/4
WIS DELLS      NOT AVBL
$$

...ELSEWHERE IN WISCONSIN...


CITY           SKY/WX    TMP DP  RH WIND       PRES   REMARKS
MILWAUKEE      CLOUDY    41  33  73 S3        29.74S
MADISON        DRIZZLE   38  36  92 S7        29.71S WCI  33
GREEN BAY      CLOUDY    38  37  97 S6        29.73R FOG     WCI  33
EAU CLAIRE     CLOUDY    34  31  88 N8        29.75R WCI  27
BLACK RVR FLS  CLOUDY    35  35 100 NW3       29.71F
MEDFORD        CLOUDY    33  31  93 NE6       29.71R WCI  27
WAUSAU         CLOUDY    34  33  96 CALM      29.69R FOG
WIS RAPIDS     FOG       33  32  96 CALM      29.71S VSB 1/4
MARSHFIELD     CLOUDY    34  32  92 N6        29.70R FOG     WCI  29
RICE LAKE      LGT SNOW  33  31  92 N8        29.78R WCI  26
$$

...NORTHEAST IOWA...


CITY           SKY/WX    TMP DP  RH WIND       PRES   REMARKS
DECORAH        CLOUDY    34  34 100 N7        29.73R WCI  28
MASON CITY     CLOUDY    34  31  88 N16       29.78R WCI  24
CHARLES CITY   CLOUDY    34  34 100 N8        29.75S WCI  27
OELWEIN        CLOUDY    34  34 100 NW8       29.74R WCI  27
$$

...ELSEWHERE IN IOWA...


CITY           SKY/WX    TMP DP  RH WIND       PRES   REMARKS
DES MOINES     LGT SNOW  34  32  92 NW7       29.80R FOG     WCI  28
IOWA CITY      CLOUDY    37  37 100 W5        29.77R WCI  33
FORT DODGE     CLOUDY    34  30  86 N6        29.81R WCI  29
$$

...NORTHERN ILLINOIS...


CITY           SKY/WX    TMP DP  RH WIND       PRES   REMARKS
CHICAGO-OHARE  MOCLDY    40  35  83 S5        29.75R
CHICAGO-MIDWAY CLOUDY    45  40  82 S7        29.76R
MOLINE         CLOUDY    39  33  79 SW5       29.75S
ROCKFORD       CLOUDY    39  32  76 CALM      29.77R
PEORIA         FAIR      40  33  76 NW3       29.77R
$$

NOTE: "FAIR" INDICATES FEW OR NO CLOUDS BELOW 12,000 FEET WITH NO
SIGNIFICANT WEATHER AND/OR OBSTRUCTIONS TO VISIBILITY. WIND
SPEEDS ARE IN MILES-PER-HOUR.



USA.gov is the U.S. government's official web portal to all federal, state and local government web resources and services.